Tracking 25734 objects as of 26-May-2022
HD Live streaming from Space Station
objects crossing your sky now

CZ-3B DEB

Track CZ-3B DEB now!


NORAD ID: 39337
Int'l Code: 2010-042J
Perigee: 634.6 km
Apogee: 43,034.2 km
Inclination: 24.5 °
Period: 785.7 minutes
Semi major axis: 28205 km
RCS: 0.027 m2 (small)
Launch date: September 4, 2010
Source: People's Republic of China (PRC)
Launch site: Xichang Space Center, China (XSC)

Note: This is SATELLITE DEBRIS
aabbcc
Your satellite tracking list
Your tracking list is empty




NASA's NSSDC Master Catalog

Two Line Element Set (TLE):
1 39337U 10042J   22141.32740284  .00000609  00000-0  13406-1 0  9992
2 39337  24.4580 152.7988 7516213 337.0289   2.1165  1.83275533 55357
Source of the keplerian elements: AFSPC